SL-8 R/B

Last updated on Wed Nov 05 2025 00:02:14 GMT+0000 (Coordinated Universal Time)

1 21938U 92020B 25308.37373503 .00000046 00000+0 32516-4 0 9995 2 21938 82.9299 246.8054 0027697 289.0533 194.0598 13.75520126683908

Satellite not in orbit